Location: Knowlton
(51.2333°N, 1.2667°E)
Time: 10:25:16
(UTC+00:00)

Cosmos 1570 Rocket - Pass Details

Date: 18 April 2021
Orbit: 763 x 788 km, 74.1° (Epoch: 05 May)

Event Time Altitude Azimuth Distance (km) Brightness Sun altitude
Rises 22:21:01 0° 337° (NNW) 3,277 8.7 -24.4°
Reaches altitude 10° 22:23:28 10° 341° (NNW) 2,341 7.6 -24.6°
Maximum altitude 22:28:43 58° 61° (ENE) 905 4.3 -24.9°
Enters shadow 22:29:20 54° 90° (E) 941 4.2 -25.0°
